DAL107 KJQF-KHVN

Flight info

Callsign DAL107
Flight time 1h 23m
Altitude 33000
Route BARMY5 TYI Q64 KALDA SARDI1
Aircraft MD88/M-SDFGIJ1RWY/C

Departure

Time 2026-04-30 02:24
Airport Concord-Padgett Regional Airport (KJQF)

Arrival

Time 2026-04-30 03:48
Airport Tweed New Haven Airport (KHVN)
Time Latitude Longitude Altitude Speed Heading
2026-04-30 02:02 35.37985 -80.71332 629 ft 0 kts 325°
2026-04-30 02:12 35.37983 -80.71330 629 ft 1 kts 326°
2026-04-30 02:12 35.37975 -80.71324 629 ft 2 kts 325°
2026-04-30 02:13 35.37964 -80.71312 628 ft 2 kts 308°
2026-04-30 02:13 35.37956 -80.71297 628 ft 2 kts 296°
2026-04-30 02:13 35.37950 -80.71280 628 ft 1 kts 284°
2026-04-30 02:13 35.37949 -80.71272 628 ft 1 kts 281°
2026-04-30 02:14 35.37949 -80.71271 629 ft 0 kts 281°
2026-04-30 02:14 35.37949 -80.71272 628 ft 0 kts 281°
2026-04-30 02:16 35.37949 -80.71273 628 ft 0 kts 289°
2026-04-30 02:16 35.37954 -80.71279 629 ft 2 kts 323°
2026-04-30 02:16 35.37968 -80.71285 629 ft 0 kts 355°
2026-04-30 02:16 35.37990 -80.71282 630 ft 6 kts 10°
2026-04-30 02:17 35.38053 -80.71268 633 ft 10 kts 11°
2026-04-30 02:17 35.38077 -80.71258 634 ft 0 kts 33°
2026-04-30 02:17 35.38084 -80.71247 634 ft 5 kts 59°
2026-04-30 02:17 35.38142 -80.71195 637 ft 15 kts 12°
2026-04-30 02:18 35.38255 -80.71171 644 ft 14 kts
2026-04-30 02:18 35.38331 -80.71153 648 ft 9 kts 11°
2026-04-30 02:18 35.38410 -80.71135 651 ft 13 kts 10°
2026-04-30 02:18 35.38514 -80.71112 656 ft 16 kts 11°
2026-04-30 02:19 35.38636 -80.71085 662 ft 19 kts 10°
2026-04-30 02:19 35.38779 -80.71053 667 ft 22 kts
2026-04-30 02:19 35.38939 -80.71015 672 ft 23 kts 10°
2026-04-30 02:19 35.39084 -80.70983 674 ft 19 kts 10°
2026-04-30 02:20 35.39212 -80.70954 676 ft 17 kts 11°
2026-04-30 02:20 35.39329 -80.70927 677 ft 16 kts 10°
2026-04-30 02:20 35.39439 -80.70904 678 ft 15 kts
2026-04-30 02:20 35.39539 -80.70881 679 ft 13 kts 12°
2026-04-30 02:21 35.39633 -80.70858 682 ft 15 kts
2026-04-30 02:21 35.39750 -80.70833 685 ft 18 kts
2026-04-30 02:21 35.39773 -80.70820 686 ft 2 kts 45°
2026-04-30 02:21 35.39780 -80.70805 687 ft 0 kts 75°
2026-04-30 02:22 35.39780 -80.70802 687 ft 0 kts 82°
2026-04-30 02:23 35.39781 -80.70797 687 ft 2 kts 83°
2026-04-30 02:23 35.39769 -80.70725 690 ft 14 kts 130°
2026-04-30 02:23 35.39558 -80.70739 685 ft 66 kts 191°
2026-04-30 02:23 35.38815 -80.70905 671 ft 148 kts 190°
2026-04-30 02:24 35.37650 -80.71164 1041 ft 183 kts 189°
2026-04-30 02:24 35.36277 -80.71433 1428 ft 222 kts 190°
2026-04-30 02:24 35.34538 -80.71716 1644 ft 279 kts 189°
2026-04-30 02:24 35.32835 -80.71944 3127 ft 225 kts 179°
2026-04-30 02:25 35.31441 -80.71382 3956 ft 225 kts 150°
2026-04-30 02:25 35.30141 -80.70189 3986 ft 236 kts 141°
2026-04-30 02:25 35.28870 -80.68933 4041 ft 234 kts 141°
2026-04-30 02:25 35.27661 -80.67596 4012 ft 235 kts 123°
2026-04-30 02:26 35.26891 -80.65844 4047 ft 230 kts 109°
2026-04-30 02:26 35.26444 -80.63971 4047 ft 228 kts 96°
2026-04-30 02:26 35.26339 -80.62039 4049 ft 227 kts 85°
2026-04-30 02:26 35.26544 -80.60127 4098 ft 227 kts 74°
2026-04-30 02:27 35.26831 -80.58229 4236 ft 226 kts 77°
2026-04-30 02:27 35.27105 -80.56246 4271 ft 252 kts 78°
2026-04-30 02:27 35.27373 -80.54005 4459 ft 281 kts 79°
2026-04-30 02:27 35.27630 -80.51569 5156 ft 287 kts 80°
2026-04-30 02:28 35.27854 -80.49164 5925 ft 290 kts 81°
2026-04-30 02:28 35.28062 -80.46679 6637 ft 295 kts 82°
2026-04-30 02:28 35.28251 -80.44161 7279 ft 301 kts 83°
2026-04-30 02:28 35.28422 -80.41627 8015 ft 305 kts 83°
2026-04-30 02:29 35.28586 -80.39016 8677 ft 310 kts 84°
2026-04-30 02:29 35.28739 -80.36382 9294 ft 316 kts 84°
2026-04-30 02:29 35.28890 -80.33662 10041 ft 318 kts 85°
2026-04-30 02:29 35.29037 -80.30862 10120 ft 344 kts 84°
2026-04-30 02:30 35.29187 -80.27853 10215 ft 366 kts 85°
2026-04-30 02:30 35.29335 -80.24738 10782 ft 372 kts 85°
2026-04-30 02:30 35.29480 -80.21555 11456 ft 373 kts 84°
2026-04-30 02:30 35.29625 -80.18364 11957 ft 380 kts 84°
2026-04-30 02:31 35.29768 -80.15147 12676 ft 380 kts 84°
2026-04-30 02:31 35.29913 -80.11900 13210 ft 384 kts 83°
2026-04-30 02:31 35.30312 -80.08727 13737 ft 384 kts 73°
2026-04-30 02:31 35.31091 -80.05582 14201 ft 386 kts 64°
2026-04-30 02:32 35.32036 -80.02512 14761 ft 388 kts 65°
2026-04-30 02:32 35.32991 -79.99367 15177 ft 396 kts 66°
2026-04-30 02:32 35.33933 -79.96234 15767 ft 396 kts 66°
2026-04-30 02:32 35.34888 -79.93034 16195 ft 403 kts 66°
2026-04-30 02:33 35.35840 -79.89825 16738 ft 404 kts 66°
2026-04-30 02:33 35.36805 -79.86565 17147 ft 410 kts 67°
2026-04-30 02:33 35.37775 -79.83276 17606 ft 413 kts 66°
2026-04-30 02:33 35.38749 -79.79942 18118 ft 415 kts 67°
2026-04-30 02:34 35.39715 -79.76604 18495 ft 421 kts 67°
2026-04-30 02:34 35.40699 -79.73201 18945 ft 424 kts 67°
2026-04-30 02:34 35.41680 -79.69785 19372 ft 427 kts 67°
2026-04-30 02:34 35.42679 -79.66305 19751 ft 432 kts 67°
2026-04-30 02:35 35.43674 -79.62831 20257 ft 432 kts 67°
2026-04-30 02:35 35.44663 -79.59375 20553 ft 439 kts 68°
2026-04-30 02:35 35.45670 -79.55859 21076 ft 438 kts 67°
2026-04-30 02:35 35.46690 -79.52301 21316 ft 446 kts 67°
2026-04-30 02:36 35.47722 -79.48697 21719 ft 448 kts 67°
2026-04-30 02:36 35.48740 -79.45133 22170 ft 449 kts 67°
2026-04-30 02:36 35.49787 -79.41491 22432 ft 453 kts 67°
2026-04-30 02:36 35.50831 -79.37856 22815 ft 456 kts 67°
2026-04-30 02:37 35.51894 -79.34152 23113 ft 460 kts 68°
2026-04-30 02:37 35.52958 -79.30453 23452 ft 462 kts 68°
2026-04-30 02:37 35.54026 -79.26739 23789 ft 464 kts 67°
2026-04-30 02:37 35.55101 -79.23013 23916 ft 472 kts 68°
2026-04-30 02:38 35.56186 -79.19241 24391 ft 470 kts 68°
2026-04-30 02:38 35.57294 -79.15413 24479 ft 479 kts 68°
2026-04-30 02:38 35.58401 -79.11578 24879 ft 478 kts 67°
2026-04-30 02:38 35.59519 -79.07720 25150 ft 482 kts 67°
2026-04-30 02:39 35.60636 -79.03799 25411 ft 485 kts 68°
2026-04-30 02:39 35.61727 -78.99921 25764 ft 486 kts 68°
2026-04-30 02:39 35.62843 -78.95940 25957 ft 491 kts 68°
2026-04-30 02:39 35.63941 -78.92001 26284 ft 492 kts 68°
2026-04-30 02:40 35.65060 -78.87981 26455 ft 497 kts 68°
2026-04-30 02:40 35.66176 -78.83954 26801 ft 497 kts 68°
2026-04-30 02:40 35.67292 -78.79948 27115 ft 498 kts 68°
2026-04-30 02:40 35.68402 -78.75932 27566 ft 496 kts 68°
2026-04-30 02:41 35.69522 -78.71905 27717 ft 501 kts 68°
2026-04-30 02:41 35.70650 -78.67839 28031 ft 507 kts 67°
2026-04-30 02:41 35.71787 -78.63776 28683 ft 510 kts 67°
2026-04-30 02:41 35.72933 -78.59641 29364 ft 513 kts 67°
2026-04-30 02:42 35.74107 -78.55450 29694 ft 525 kts 67°
2026-04-30 02:42 35.75299 -78.51159 30306 ft 528 kts 66°
2026-04-30 02:42 35.76485 -78.46908 30953 ft 530 kts 66°
2026-04-30 02:42 35.77692 -78.42606 31311 ft 538 kts 67°
2026-04-30 02:43 35.78910 -78.38241 31909 ft 541 kts 66°
2026-04-30 02:43 35.80154 -78.33804 32353 ft 545 kts 66°
2026-04-30 02:43 35.81417 -78.29327 32542 ft 555 kts 67°
2026-04-30 02:43 35.82662 -78.24861 32934 ft 557 kts 66°
2026-04-30 02:44 35.83946 -78.20324 32791 ft 566 kts 66°
2026-04-30 02:44 35.85219 -78.15784 32882 ft 552 kts 66°
2026-04-30 02:44 35.86470 -78.11329 32822 ft 553 kts 66°
2026-04-30 02:45 35.88958 -78.02244 32842 ft 554 kts 67°
2026-04-30 02:45 35.91439 -77.93117 32863 ft 554 kts 67°
2026-04-30 02:46 35.93921 -77.84001 32856 ft 554 kts 66°
2026-04-30 02:46 35.96382 -77.74976 32857 ft 554 kts 66°
2026-04-30 02:46 35.97938 -77.70583 32846 ft 544 kts 54°
2026-04-30 02:47 36.00028 -77.66783 32857 ft 532 kts 42°
2026-04-30 02:47 36.05087 -77.60169 32848 ft 528 kts 39°
2026-04-30 02:48 36.10166 -77.53492 32853 ft 530 kts 40°
2026-04-30 02:48 36.15172 -77.46818 32852 ft 531 kts 40°
2026-04-30 02:49 36.20213 -77.40049 32860 ft 531 kts 39°
2026-04-30 02:49 36.25209 -77.33332 32854 ft 531 kts 41°
2026-04-30 02:50 36.30215 -77.26605 32849 ft 530 kts 39°
2026-04-30 02:50 36.35531 -77.20344 32855 ft 523 kts 34°
2026-04-30 02:51 36.41325 -77.13854 32849 ft 527 kts 35°
2026-04-30 02:51 36.52238 -77.01528 32856 ft 530 kts 35°
2026-04-30 02:52 36.63191 -76.89122 32868 ft 531 kts 35°
2026-04-30 02:52 36.74114 -76.76759 32877 ft 530 kts 35°
2026-04-30 02:53 36.85055 -76.64400 32867 ft 531 kts 35°
2026-04-30 02:53 36.96055 -76.51971 32868 ft 532 kts 35°
2026-04-30 02:54 37.06982 -76.39374 32882 ft 534 kts 36°
2026-04-30 02:54 37.17933 -76.26692 32839 ft 534 kts 36°
2026-04-30 02:55 37.24036 -76.19636 32845 ft 534 kts 36°
2026-04-30 02:55 37.29551 -76.13258 32843 ft 534 kts 36°
2026-04-30 02:56 37.35049 -76.06908 32837 ft 534 kts 36°
2026-04-30 02:56 37.40522 -76.00580 32830 ft 534 kts 36°
2026-04-30 02:57 37.46058 -75.94188 32838 ft 534 kts 36°
2026-04-30 02:57 37.51553 -75.87858 32856 ft 532 kts 34°
2026-04-30 02:58 37.57541 -75.82546 32863 ft 518 kts 22°
2026-04-30 02:58 37.63757 -75.77962 32855 ft 519 kts 22°
2026-04-30 02:59 37.69996 -75.73312 32861 ft 519 kts 22°
2026-04-30 02:59 37.76278 -75.68604 32862 ft 520 kts 23°
2026-04-30 03:00 37.82516 -75.63917 32873 ft 520 kts 22°
2026-04-30 03:00 37.88625 -75.58859 32863 ft 524 kts 27°
2026-04-30 03:01 37.94647 -75.53602 32869 ft 524 kts 27°
2026-04-30 03:01 38.00641 -75.48366 32887 ft 520 kts 27°
2026-04-30 03:02 38.06623 -75.43183 32875 ft 517 kts 25°
2026-04-30 03:02 38.12743 -75.38245 32870 ft 519 kts 25°
2026-04-30 03:03 38.18847 -75.33265 32858 ft 518 kts 26°
2026-04-30 03:03 38.28153 -75.26512 32872 ft 504 kts 14°
2026-04-30 03:04 38.34728 -75.23400 32870 ft 503 kts 13°
2026-04-30 03:04 38.41303 -75.20251 32872 ft 499 kts 13°
2026-04-30 03:05 38.44498 -75.18700 32872 ft 480 kts 13°
2026-04-30 03:05 38.47593 -75.17204 32866 ft 467 kts 13°
2026-04-30 03:05 38.53672 -75.14266 32865 ft 468 kts 13°
2026-04-30 03:06 38.59803 -75.11293 32873 ft 472 kts 13°
2026-04-30 03:06 38.65757 -75.07880 32886 ft 483 kts 26°
2026-04-30 03:07 38.68523 -75.05257 32880 ft 493 kts 37°
2026-04-30 03:07 38.71024 -75.02209 32904 ft 492 kts 38°
2026-04-30 03:07 38.76065 -74.96196 32884 ft 490 kts 37°
2026-04-30 03:08 38.81176 -74.90485 32883 ft 487 kts 33°
2026-04-30 03:08 38.86446 -74.84978 32882 ft 485 kts 33°
2026-04-30 03:09 38.91674 -74.79533 32885 ft 486 kts 34°
2026-04-30 03:09 38.96941 -74.74051 32891 ft 487 kts 33°
2026-04-30 03:10 39.02208 -74.68534 32892 ft 483 kts 34°
2026-04-30 03:10 39.07436 -74.63029 32879 ft 485 kts 34°
2026-04-30 03:11 39.10041 -74.60270 32428 ft 479 kts 34°
2026-04-30 03:11 39.12607 -74.57557 31943 ft 468 kts 34°
2026-04-30 03:11 39.15096 -74.54919 31534 ft 456 kts 35°
2026-04-30 03:11 39.17539 -74.52264 30788 ft 453 kts 36°
2026-04-30 03:12 39.19912 -74.49679 30092 ft 450 kts 37°
2026-04-30 03:12 39.22317 -74.47048 29382 ft 448 kts 37°
2026-04-30 03:12 39.24678 -74.44468 28704 ft 448 kts 37°
2026-04-30 03:12 39.27066 -74.41853 28066 ft 448 kts 37°
2026-04-30 03:13 39.29420 -74.39279 27536 ft 448 kts 37°
2026-04-30 03:13 39.31789 -74.36676 26810 ft 449 kts 37°
2026-04-30 03:13 39.34172 -74.34052 26108 ft 446 kts 38°
2026-04-30 03:13 39.36493 -74.31492 25400 ft 441 kts 38°
2026-04-30 03:14 39.38806 -74.28938 24724 ft 434 kts 38°
2026-04-30 03:14 39.41091 -74.26412 24063 ft 427 kts 38°
2026-04-30 03:14 39.43311 -74.23959 23435 ft 421 kts 38°
2026-04-30 03:14 39.45522 -74.21518 22931 ft 411 kts 38°
2026-04-30 03:15 39.47677 -74.19119 22305 ft 408 kts 38°
2026-04-30 03:15 39.49833 -74.16713 21656 ft 407 kts 38°
2026-04-30 03:15 39.51896 -74.14281 21025 ft 405 kts 42°
2026-04-30 03:15 39.53853 -74.11651 20538 ft 400 kts 46°
2026-04-30 03:16 39.55635 -74.08926 19991 ft 399 kts 49°
2026-04-30 03:16 39.57394 -74.06139 19442 ft 396 kts 49°
2026-04-30 03:16 39.59114 -74.03419 18889 ft 393 kts 48°
2026-04-30 03:16 39.60837 -74.00703 18396 ft 388 kts 48°
2026-04-30 03:17 39.62569 -73.97985 17901 ft 386 kts 48°
2026-04-30 03:17 39.64267 -73.95315 17377 ft 384 kts 48°
2026-04-30 03:17 39.65985 -73.92611 16847 ft 382 kts 49°
2026-04-30 03:17 39.67668 -73.89954 16319 ft 379 kts 49°
2026-04-30 03:18 39.69323 -73.87340 15797 ft 375 kts 49°
2026-04-30 03:18 39.70970 -73.84735 15270 ft 373 kts 49°
2026-04-30 03:18 39.72604 -73.82151 14747 ft 371 kts 49°
2026-04-30 03:18 39.74232 -73.79575 14228 ft 369 kts 49°
2026-04-30 03:19 39.75866 -73.76994 13698 ft 366 kts 50°
2026-04-30 03:19 39.77477 -73.74445 13175 ft 364 kts 50°
2026-04-30 03:19 39.79064 -73.71931 12649 ft 360 kts 50°
2026-04-30 03:19 39.80658 -73.69411 12106 ft 355 kts 50°
2026-04-30 03:20 39.82191 -73.66987 11690 ft 346 kts 50°
2026-04-30 03:20 39.83695 -73.64596 11200 ft 340 kts 50°
2026-04-30 03:20 39.85181 -73.62229 10933 ft 326 kts 50°
2026-04-30 03:20 39.86577 -73.60007 10930 ft 306 kts 50°
2026-04-30 03:21 39.87897 -73.57903 10932 ft 295 kts 50°
2026-04-30 03:21 39.89187 -73.55848 10948 ft 300 kts 50°
2026-04-30 03:21 39.90586 -73.53764 10958 ft 307 kts 44°
2026-04-30 03:21 39.92160 -73.51823 10957 ft 310 kts 39°
2026-04-30 03:22 39.93755 -73.49961 10958 ft 308 kts 40°
2026-04-30 03:22 39.95357 -73.48080 10949 ft 307 kts 40°
2026-04-30 03:22 39.96929 -73.46235 10954 ft 306 kts 41°
2026-04-30 03:22 39.98517 -73.44366 10958 ft 306 kts 41°
2026-04-30 03:23 40.00105 -73.42490 10959 ft 306 kts 41°
2026-04-30 03:23 40.01682 -73.40628 10953 ft 306 kts 41°
2026-04-30 03:23 40.03261 -73.38761 10957 ft 306 kts 41°
2026-04-30 03:23 40.04842 -73.36942 10946 ft 304 kts 33°
2026-04-30 03:24 40.06761 -73.35908 10966 ft 299 kts
2026-04-30 03:24 40.08833 -73.35400 10962 ft 301 kts
2026-04-30 03:24 40.10909 -73.34909 10953 ft 301 kts
2026-04-30 03:24 40.12979 -73.34418 10947 ft 301 kts
2026-04-30 03:25 40.15016 -73.33955 10951 ft 300 kts
2026-04-30 03:25 40.17075 -73.33498 10950 ft 301 kts
2026-04-30 03:25 40.19154 -73.33032 10949 ft 301 kts
2026-04-30 03:25 40.21231 -73.32570 10952 ft 301 kts
2026-04-30 03:26 40.23303 -73.32102 10948 ft 301 kts
2026-04-30 03:26 40.25362 -73.31638 10952 ft 301 kts
2026-04-30 03:26 40.27424 -73.31175 10952 ft 300 kts
2026-04-30 03:26 40.29489 -73.30720 10950 ft 300 kts
2026-04-30 03:27 40.31556 -73.30256 10947 ft 301 kts
2026-04-30 03:27 40.33631 -73.29794 10953 ft 302 kts
2026-04-30 03:27 40.35709 -73.29341 10952 ft 302 kts
2026-04-30 03:27 40.37780 -73.28893 10956 ft 302 kts
2026-04-30 03:28 40.39858 -73.28445 10957 ft 301 kts
2026-04-30 03:28 40.41915 -73.27974 10954 ft 301 kts
2026-04-30 03:28 40.43984 -73.27467 10958 ft 302 kts
2026-04-30 03:28 40.46056 -73.26959 10959 ft 302 kts
2026-04-30 03:29 40.48125 -73.26450 10965 ft 302 kts
2026-04-30 03:29 40.50196 -73.25942 10961 ft 302 kts
2026-04-30 03:29 40.52260 -73.25433 10968 ft 302 kts
2026-04-30 03:29 40.54334 -73.24922 10969 ft 302 kts
2026-04-30 03:30 40.56386 -73.24416 10967 ft 301 kts
2026-04-30 03:30 40.58457 -73.23906 10972 ft 300 kts
2026-04-30 03:30 40.60533 -73.23393 10970 ft 301 kts
2026-04-30 03:30 40.62585 -73.22887 10974 ft 301 kts
2026-04-30 03:31 40.64658 -73.22376 10973 ft 301 kts
2026-04-30 03:31 40.66718 -73.21867 10971 ft 301 kts
2026-04-30 03:31 40.68753 -73.21364 10971 ft 301 kts
2026-04-30 03:31 40.70843 -73.20850 10972 ft 301 kts
2026-04-30 03:32 40.72892 -73.20343 10973 ft 301 kts
2026-04-30 03:32 40.74957 -73.19833 10972 ft 302 kts
2026-04-30 03:32 40.77035 -73.19321 10978 ft 302 kts
2026-04-30 03:32 40.79095 -73.18811 10974 ft 301 kts
2026-04-30 03:33 40.81175 -73.18298 10972 ft 301 kts
2026-04-30 03:33 40.83213 -73.17795 10972 ft 301 kts
2026-04-30 03:33 40.85307 -73.17279 10823 ft 304 kts 10°
2026-04-30 03:33 40.87359 -73.16771 10577 ft 303 kts
2026-04-30 03:34 40.89422 -73.16262 10318 ft 300 kts 10°
2026-04-30 03:34 40.91458 -73.15760 10059 ft 297 kts 10°
2026-04-30 03:34 40.93488 -73.15259 9802 ft 295 kts 10°
2026-04-30 03:34 40.95496 -73.14764 9550 ft 293 kts 10°
2026-04-30 03:35 40.97512 -73.14265 9303 ft 293 kts 10°
2026-04-30 03:35 40.99524 -73.13766 9057 ft 291 kts 10°
2026-04-30 03:35 41.01532 -73.13271 8803 ft 290 kts 10°
2026-04-30 03:35 41.03509 -73.12783 8549 ft 289 kts 10°
2026-04-30 03:36 41.05496 -73.12292 8302 ft 288 kts 10°
2026-04-30 03:36 41.07441 -73.11813 8058 ft 287 kts 10°
2026-04-30 03:36 41.09428 -73.11321 7810 ft 285 kts 10°
2026-04-30 03:36 41.11389 -73.10836 7557 ft 285 kts 10°
2026-04-30 03:37 41.13319 -73.10361 7306 ft 284 kts 10°
2026-04-30 03:37 41.15264 -73.09880 7053 ft 283 kts 10°
2026-04-30 03:37 41.17250 -73.09390 6820 ft 297 kts 10°
2026-04-30 03:37 41.19334 -73.08875 6573 ft 304 kts 10°
2026-04-30 03:38 41.21403 -73.08364 6325 ft 304 kts 11°
2026-04-30 03:38 41.23469 -73.07849 6056 ft 302 kts 11°
2026-04-30 03:38 41.25533 -73.07333 5784 ft 299 kts 11°
2026-04-30 03:38 41.27558 -73.06827 5516 ft 296 kts 11°
2026-04-30 03:39 41.29597 -73.06316 5255 ft 294 kts 11°
2026-04-30 03:39 41.31602 -73.05814 4994 ft 293 kts 11°
2026-04-30 03:39 41.33606 -73.05312 4737 ft 292 kts 11°
2026-04-30 03:39 41.35582 -73.04816 4483 ft 290 kts 11°
2026-04-30 03:40 41.37577 -73.04317 4233 ft 288 kts 12°
2026-04-30 03:40 41.39534 -73.03827 3986 ft 288 kts 12°
2026-04-30 03:40 41.41488 -73.03337 3739 ft 282 kts 12°
2026-04-30 03:40 41.43390 -73.02869 3486 ft 272 kts 10°
2026-04-30 03:41 41.45163 -73.02151 3243 ft 257 kts 34°
2026-04-30 03:41 41.46435 -73.00636 3058 ft 240 kts 60°
2026-04-30 03:41 41.46961 -72.98670 3058 ft 211 kts 88°
2026-04-30 03:41 41.46821 -72.96880 2985 ft 184 kts 111°
2026-04-30 03:42 41.46435 -72.95592 2943 ft 169 kts 114°
2026-04-30 03:42 41.46337 -72.95257 2939 ft 168 kts 115°
2026-04-30 03:42 41.46014 -72.94197 2954 ft 169 kts 115°
2026-04-30 03:43 41.45563 -72.92696 2982 ft 176 kts 114°
2026-04-30 03:43 41.45108 -72.91170 2975 ft 179 kts 115°
2026-04-30 03:43 41.44649 -72.89621 2970 ft 180 kts 114°
2026-04-30 03:43 41.44054 -72.88187 2945 ft 176 kts 137°
2026-04-30 03:44 41.42989 -72.87411 2977 ft 175 kts 166°
2026-04-30 03:44 41.41771 -72.87407 2985 ft 176 kts 182°
2026-04-30 03:44 41.40533 -72.87524 2828 ft 182 kts 182°
2026-04-30 03:44 41.39267 -72.87645 2594 ft 181 kts 182°
2026-04-30 03:45 41.38023 -72.87759 2343 ft 179 kts 182°
2026-04-30 03:45 41.36784 -72.87869 2101 ft 176 kts 182°
2026-04-30 03:45 41.35588 -72.87973 1909 ft 168 kts 182°
2026-04-30 03:45 41.34415 -72.88068 1670 ft 163 kts 181°
2026-04-30 03:46 41.33359 -72.88180 1415 ft 143 kts 184°
2026-04-30 03:46 41.32393 -72.88325 1066 ft 136 kts 186°
2026-04-30 03:46 41.31474 -72.88436 877 ft 132 kts 183°
2026-04-30 03:46 41.30558 -72.88514 769 ft 134 kts 182°
2026-04-30 03:47 41.29608 -72.88581 615 ft 138 kts 182°
2026-04-30 03:47 41.28646 -72.88642 414 ft 137 kts 181°
2026-04-30 03:47 41.27690 -72.88686 185 ft 138 kts 182°
2026-04-30 03:47 41.26748 -72.88753 22 ft 123 kts 182°
2026-04-30 03:48 41.26159 -72.88789 24 ft 43 kts 183°
2026-04-30 03:48 41.25906 -72.88805 25 ft 13 kts 182°
2026-04-30 03:48 41.25836 -72.88753 25 ft 13 kts 96°
2026-04-30 03:48 41.25887 -72.88696 25 ft 9 kts 12°
2026-04-30 03:49 41.25958 -72.88680 25 ft 11 kts
2026-04-30 03:49 41.26049 -72.88661 24 ft 14 kts 10°
2026-04-30 03:49 41.26150 -72.88635 23 ft 14 kts 11°
2026-04-30 03:49 41.26252 -72.88611 21 ft 14 kts 12°
2026-04-30 03:50 41.26335 -72.88550 22 ft 13 kts 37°
2026-04-30 03:50 41.26419 -72.88469 22 ft 13 kts 32°
2026-04-30 03:50 41.26476 -72.88490 22 ft 8 kts 311°
2026-04-30 03:50 41.26510 -72.88540 21 ft 6 kts 311°
2026-04-30 03:51 41.26536 -72.88579 21 ft 4 kts 310°
2026-04-30 03:51 41.26540 -72.88585 21 ft 0 kts 310°
2026-04-30 03:52 41.26545 -72.88593 21 ft 5 kts 310°
2026-04-30 03:52 41.26588 -72.88660 21 ft 10 kts 311°
2026-04-30 03:52 41.26636 -72.88731 21 ft 10 kts 311°
2026-04-30 03:53 41.26687 -72.88809 21 ft 11 kts 310°
2026-04-30 03:53 41.26738 -72.88886 22 ft 9 kts 311°
2026-04-30 03:53 41.26775 -72.88942 23 ft 6 kts 310°
2026-04-30 03:53 41.26801 -72.88971 24 ft 3 kts 338°
2026-04-30 03:54 41.26813 -72.88973 24 ft 3 kts 356°
2026-04-30 03:54 41.26856 -72.88998 25 ft 7 kts 315°
2026-04-30 03:54 41.26878 -72.89031 26 ft 1 kts 310°